San Jose, Costa Rica

8:06 PM CST on August 27, 2016 (GMT -0600)
Juan Santamaria International

Weather History for MROC - May, 2014

Change the Weather History Date:

Monday, May 5, 2014

  Actual Average Record
Temperature  
Mean Temperature 74 °F -  
Max Temperature 84 °F 81 °F 89 °F (2001)
Min Temperature 64 °F 65 °F 60 °F (2008)
Cooling Degree Days 9    
Growing Degree Days 24 (Base 50)    
Moisture  
Dew Point 61 °F    
Average Humidity 64    
Maximum Humidity 88    
Minimum Humidity 39    
Precipitation  
Precipitation 0.00 in 0.35 in - ()
Sea Level Pressure  
Sea Level Pressure 29.99 in    
Wind  
Wind Speed 11 mph ()    
Max Wind Speed 20 mph    
Max Gust Speed 23 mph    
Visibility 8.2 miles    
Events      
Averages and records for this station are not official NWS values.
T = Trace of Precipitation, MM = Missing Value Source: Averaged Metar Reports

Daily Weather History Graph

Daily Weather History Graph

Search for Another Location

Airport or City:

Trip Planner

Search our weather history database for the weather conditions in past years. The results will help you decide how hot, cold, wet, or windy it might be!

Date:

Astronomy

May. 05, 2014 Rise Set
Actual Time 5:18 AM CST 5:48 PM CST
Civil Twilight 4:56 AM CST 6:10 PM CST
Nautical Twilight 4:30 AM CST 6:36 PM CST
Astronomical Twilight 4:04 AM CST 7:02 PM CST
Moon 10:33 AM CST (5/5) 11:16 PM CST (5/5)
Length of Visible Light 13h 14m
Length of Day
12h 30m
Waxing Crescent, 37% of the Moon is Illuminated
May 5
Waxing Crescent
May 6
First Quarter
May 14
Full
May 21
Last Quarter
May 28
New

Hourly Weather History & Observations

Time (CST) Temp. Heat Index Dew Point Humidity Pressure Visibility Wind Dir Wind Speed Gust Speed Precip Events Conditions
12:00 AM 70 °F - 63 °F 72% 29.89 in 12 mi NE 15.0 mph - -   Scattered Clouds
12:00 AM 69.8 °F - 62.6 °F 78% 30.06 in 6.2 mi NE 15.0 mph - N/A   Partly Cloudy
1:00 AM 69.8 °F - 62.6 °F 78% 30.04 in - ENE 10.4 mph - N/A   Clear
2:00 AM 69.8 °F - 60.8 °F 73% 30.02 in - NE 12.7 mph - N/A   Clear
3:00 AM 67 °F - 62 °F 79% 29.88 in 12 mi East 6.9 mph - -  
3:00 AM 66.2 °F - 62.6 °F 88% 30.02 in - East 6.9 mph - N/A   Clear
4:00 AM 66.2 °F - 60.8 °F 83% 30.02 in - NE 6.9 mph - N/A   Clear
5:00 AM 66.2 °F - 60.8 °F 83% 30.02 in - ENE 11.5 mph - N/A   Clear
6:00 AM 68 °F - 60 °F 68% 29.91 in 12 mi ENE 9.2 mph - -   Scattered Clouds
6:00 AM 68.0 °F - 60.8 °F 78% 30.04 in - ENE 9.2 mph - N/A   Clear
7:00 AM 71.6 °F - 60.8 °F 69% 30.05 in - NE 10.4 mph - N/A   Clear
8:00 AM 77.0 °F - 60.8 °F 57% 30.06 in 6.2 mi East 9.2 mph - N/A   Partly Cloudy
9:00 AM 81 °F - 62 °F 43% 29.91 in 12 mi East 10.4 mph - -   Scattered Clouds
9:00 AM 80.6 °F 81.8 °F 62.6 °F 54% 30.06 in 6.2 mi East 10.4 mph - N/A   Partly Cloudy
10:00 AM 80.6 °F 81.8 °F 62.6 °F 54% 30.06 in 6.2 mi East 11.5 mph - N/A   Partly Cloudy
11:00 AM 82.4 °F 82.9 °F 60.8 °F 48% 30.04 in 6.2 mi ESE 10.4 mph - N/A   Partly Cloudy
12:00 PM 82 °F - 61 °F 39% 29.86 in 12 mi ESE 13.8 mph - -   Partly Cloudy
12:00 PM 82.4 °F 82.9 °F 60.8 °F 48% 30.02 in 6.2 mi ESE 13.8 mph - N/A   Scattered Clouds
1:00 PM 80.6 °F 81.5 °F 60.8 °F 51% 29.99 in 6.2 mi ESE 12.7 mph - N/A   Scattered Clouds
2:00 PM 80.6 °F 81.8 °F 62.6 °F 54% 29.97 in 6.2 mi East 13.8 mph - N/A   Scattered Clouds
3:00 PM 81 °F - 62 °F 42% 29.80 in 12 mi East 19.6 mph - -   Scattered Clouds
3:00 PM 80.6 °F 81.5 °F 60.8 °F 51% 29.95 in 6.2 mi East 19.6 mph - N/A   Scattered Clouds
4:00 PM 80.6 °F 81.5 °F 60.8 °F 51% 29.95 in 6.2 mi East 18.4 mph - N/A   Scattered Clouds
5:00 PM 77.0 °F - 60.8 °F 57% 29.97 in 6.2 mi East 11.5 mph 23.0 mph N/A   Scattered Clouds
6:00 PM 74 °F - 61 °F 55% 29.87 in 12 mi East 19.6 mph - -   Mostly Cloudy
6:00 PM 73.4 °F - 60.8 °F 65% 30.01 in 6.2 mi East 19.6 mph - N/A   Mostly Cloudy
7:00 PM 73.4 °F - 60.8 °F 65% 30.01 in 6.2 mi East 13.8 mph - N/A   Partly Cloudy
8:00 PM 71.6 °F - 60.8 °F 69% 30.03 in 6.2 mi East 9.2 mph - N/A   Scattered Clouds
9:00 PM 70 °F - 60 °F 62% 29.90 in 12 mi East 4.6 mph - -   Scattered Clouds
9:00 PM 71.6 °F - 60.8 °F 69% 30.05 in 6.2 mi East 4.6 mph - N/A   Partly Cloudy
10:00 PM 68.0 °F - 60.8 °F 78% 30.05 in - ENE 5.8 mph - N/A   Clear
11:00 PM 68.0 °F - 59.0 °F 73% 30.04 in - ENE 4.6 mph - N/A   Clear